Voyager Of The Seas — C6SE5 — position and weather

sailwx.info

Track history (hours):
 
Tides and Currents Weather Stations Pressure Air Temp Water Temp Dewpoint Dewpoint Depression Visibility Wind Speed Wind Dir Waves Ship Positions

Voyager Of The Seas

Operator: Royal Caribbean Cruises Ltd

Last reported at 2016-May-03 11:19 UTC. Time now 2016-May-04 19:17 UTC.
Position N 01°15' E 103°24'.

Type: Passenger vessel. MMSI: 311317000.

Date/timePositionNaut miles runAvg speedWind from/ knotsBaromVisibWave heightAir tempDewpointWater temp
2016-May-03 11:19N 01°15' E 103°24'1317.1
2016-May-03 10:33N 01°11' E 103°36'1615.8
2016-May-03 09:33N 01°12' E 103°52'4 3.4
2016-May-03 08:31N 01°16' E 103°52'0 0.0
2016-May-03 07:31N 01°16' E 103°52'0 0.0
2016-May-03 06:28N 01°16' E 103°52'0 0.0
2016-May-03 05:31N 01°16' E 103°52'0 0.0
2016-May-03 04:19N 01°16' E 103°52'0 0.0
2016-May-03 03:22N 01°16' E 103°52'0 0.0
2016-May-03 02:22N 01°16' E 103°52'0 0.0
2016-May-03 01:31N 01°16' E 103°52'0 0.0
2016-May-03 00:31N 01°16' E 103°52'0 0.0
2016-May-02 23:31N 01°16' E 103°52'0 0.0
2016-May-02 22:28N 01°16' E 103°52'0 0.2
2016-May-02 21:33N 01°16' E 103°52'5 4.8
2016-May-02 20:33N 01°11' E 103°50'10 9.8
2016-May-02 19:33N 01°05' E 103°42'1110.5
2016-May-02 18:33N 01°07' E 103°32'321 9.3
2016-May-01 08:13N 05°25' E 100°21'32114.8
2016-Apr-30 10:33N 01°12' E 103°38'1514.4
2016-Apr-30 09:32N 01°13' E 103°53'3 3.2
2016-Apr-30 08:33N 01°16' E 103°52'0 0.0
2016-Apr-30 07:34N 01°16' E 103°52'0 0.0
2016-Apr-30 06:33N 01°16' E 103°52'0 0.0
2016-Apr-30 05:33N 01°16' E 103°52'0 0.0
2016-Apr-30 04:34N 01°16' E 103°52'0 0.0
2016-Apr-30 03:33N 01°16' E 103°52'0 0.0
2016-Apr-30 02:33N 01°16' E 103°52'0 0.0
2016-Apr-30 01:34N 01°16' E 103°52'0 0.0
2016-Apr-30 00:33N 01°16' E 103°52'0 0.0
2016-Apr-29 23:33N 01°16' E 103°52'0 0.0
2016-Apr-29 22:33N 01°16' E 103°52'0 0.0
2016-Apr-29 21:33N 01°16' E 103°52'0 0.0
2016-Apr-29 20:34N 01°16' E 103°52'0 0.0
2016-Apr-29 19:33N 01°16' E 103°52'0 0.0
2016-Apr-29 18:34N 01°16' E 103°52'0 0.0
2016-Apr-29 17:34N 01°16' E 103°52'0 0.0
2016-Apr-29 16:34N 01°16' E 103°52'0 0.0
2016-Apr-29 15:33N 01°16' E 103°52'0 0.0
2016-Apr-29 14:33N 01°16' E 103°52'0 0.0
2016-Apr-29 13:34N 01°16' E 103°52'0 0.0
2016-Apr-29 12:33N 01°16' E 103°52'0 0.0
2016-Apr-29 11:33N 01°16' E 103°52'0 0.0
2016-Apr-29 10:33N 01°16' E 103°52'0 0.0
2016-Apr-29 09:33N 01°16' E 103°52'0 0.0
2016-Apr-29 08:33N 01°16' E 103°52'0 0.0
2016-Apr-29 07:33N 01°16' E 103°52'0 0.0
2016-Apr-29 06:34N 01°16' E 103°52'0 0.0
2016-Apr-29 05:33N 01°16' E 103°52'0 0.0
2016-Apr-29 04:33N 01°16' E 103°52'0 0.0
2016-Apr-29 03:33N 01°16' E 103°52'0 0.0
2016-Apr-29 02:31N 01°16' E 103°52'0 0.0
2016-Apr-29 01:31N 01°16' E 103°52'4 4.7
2016-Apr-29 00:33N 01°11' E 103°51'1313.4
2016-Apr-28 23:33N 01°04' E 103°40'1212.3
2016-Apr-28 22:33N 01°08' E 103°29'17 0.5
2016-Apr-27 09:26N 01°10' E 103°46'  
Track history (hours):
 
Tides and Currents Weather Stations Pressure Air Temp Water Temp Dewpoint Dewpoint Depression Visibility Wind Speed Wind Dir Waves Ship Positions

Voyager Of The Seas

Operator: Royal Caribbean Cruises Ltd

Last reported at 2016-May-03 11:19 UTC. Time now 2016-May-04 19:17 UTC.
Position N 01°15' E 103°24'.

Type: Passenger vessel. MMSI: 311317000.

Date/timePositionNaut miles runAvg speedWind from/ knotsBaromVisibWave heightAir tempDewpointWater temp
2016-May-03 11:19N 01°15' E 103°24'1317.1
2016-May-03 10:33N 01°11' E 103°36'1615.8
2016-May-03 09:33N 01°12' E 103°52'4 3.4
2016-May-03 08:31N 01°16' E 103°52'0 0.0
2016-May-03 07:31N 01°16' E 103°52'0 0.0
2016-May-03 06:28N 01°16' E 103°52'0 0.0
2016-May-03 05:31N 01°16' E 103°52'0 0.0
2016-May-03 04:19N 01°16' E 103°52'0 0.0
2016-May-03 03:22N 01°16' E 103°52'0 0.0
2016-May-03 02:22N 01°16' E 103°52'0 0.0
2016-May-03 01:31N 01°16' E 103°52'0 0.0
2016-May-03 00:31N 01°16' E 103°52'0 0.0
2016-May-02 23:31N 01°16' E 103°52'0 0.0
2016-May-02 22:28N 01°16' E 103°52'0 0.2
2016-May-02 21:33N 01°16' E 103°52'5 4.8
2016-May-02 20:33N 01°11' E 103°50'10 9.8
2016-May-02 19:33N 01°05' E 103°42'1110.5
2016-May-02 18:33N 01°07' E 103°32'321 9.3
2016-May-01 08:13N 05°25' E 100°21'32114.8
2016-Apr-30 10:33N 01°12' E 103°38'1514.4
2016-Apr-30 09:32N 01°13' E 103°53'3 3.2
2016-Apr-30 08:33N 01°16' E 103°52'0 0.0
2016-Apr-30 07:34N 01°16' E 103°52'0 0.0
2016-Apr-30 06:33N 01°16' E 103°52'0 0.0
2016-Apr-30 05:33N 01°16' E 103°52'0 0.0
2016-Apr-30 04:34N 01°16' E 103°52'0 0.0
2016-Apr-30 03:33N 01°16' E 103°52'0 0.0
2016-Apr-30 02:33N 01°16' E 103°52'0 0.0
2016-Apr-30 01:34N 01°16' E 103°52'0 0.0
2016-Apr-30 00:33N 01°16' E 103°52'0 0.0
2016-Apr-29 23:33N 01°16' E 103°52'0 0.0
2016-Apr-29 22:33N 01°16' E 103°52'0 0.0
2016-Apr-29 21:33N 01°16' E 103°52'0 0.0
2016-Apr-29 20:34N 01°16' E 103°52'0 0.0
2016-Apr-29 19:33N 01°16' E 103°52'0 0.0
2016-Apr-29 18:34N 01°16' E 103°52'0 0.0
2016-Apr-29 17:34N 01°16' E 103°52'0 0.0
2016-Apr-29 16:34N 01°16' E 103°52'0 0.0
2016-Apr-29 15:33N 01°16' E 103°52'0 0.0
2016-Apr-29 14:33N 01°16' E 103°52'0 0.0
2016-Apr-29 13:34N 01°16' E 103°52'0 0.0
2016-Apr-29 12:33N 01°16' E 103°52'0 0.0
2016-Apr-29 11:33N 01°16' E 103°52'0 0.0
2016-Apr-29 10:33N 01°16' E 103°52'0 0.0
2016-Apr-29 09:33N 01°16' E 103°52'0 0.0
2016-Apr-29 08:33N 01°16' E 103°52'0 0.0
2016-Apr-29 07:33N 01°16' E 103°52'0 0.0
2016-Apr-29 06:34N 01°16' E 103°52'0 0.0
2016-Apr-29 05:33N 01°16' E 103°52'0 0.0
2016-Apr-29 04:33N 01°16' E 103°52'0 0.0
2016-Apr-29 03:33N 01°16' E 103°52'0 0.0
2016-Apr-29 02:31N 01°16' E 103°52'0 0.0
2016-Apr-29 01:31N 01°16' E 103°52'4 4.7
2016-Apr-29 00:33N 01°11' E 103°51'1313.4
2016-Apr-28 23:33N 01°04' E 103°40'1212.3
2016-Apr-28 22:33N 01°08' E 103°29'17 0.5
2016-Apr-27 09:26N 01°10' E 103°46'  

Dump ship's entire track history